This is the latest recevied weather packets stored in our database for station/object DO7CRZ-11. If no packets are shown the sender has not sent any weather packets the latest 10 day(s).
| Time | Temp. | Humidity | Pressure | Rain* | Wind** | Luminosity | Snow |
|---|---|---|---|---|---|---|---|
| 1777991530 | 22.78° C | 58% | 1007.7 hPa | 0 mm | - | 224 W/m² | - |
| 1777990935 | 22.78° C | 57% | 1007.9 hPa | 0 mm | - | 289 W/m² | - |
| 1777990329 | 22.78° C | 58% | 1007.9 hPa | 0 mm | - | 337 W/m² | - |
| 1777989735 | 22.78° C | 57% | 1008.1 hPa | 0 mm | - | 416 W/m² | - |
| 1777989135 | 22.78° C | 59% | 1008.2 hPa | 0 mm | - | 470 W/m² | - |
| 1777988526 | 22.78° C | 58% | 1008.2 hPa | 0 mm | - | 447 W/m² | - |
| 1777987341 | 23.33° C | 56% | 1008.1 hPa | 0 mm | - | 454 W/m² | - |
| 1777986726 | 23.33° C | 55% | 1008.1 hPa | 0 mm | - | 403 W/m² | - |
| 1777986129 | 23.33° C | 55% | 1008.1 hPa | 0 mm | - | 349 W/m² | - |
| 1777985532 | 23.33° C | 54% | 1008.1 hPa | 0 mm | - | 387 W/m² | - |
| 1777984936 | 22.78° C | 54% | 1008.2 hPa | 0 mm | - | 438 W/m² | - |
| 1777984331 | 23.33° C | 55% | 1008.2 hPa | 0 mm | - | 429 W/m² | - |
| 1777983731 | 22.78° C | 55% | 1008.2 hPa | 0 mm | - | 531 W/m² | - |
| 1777982528 | 22.78° C | 56% | 1008.3 hPa | 0 mm | - | 384 W/m² | - |
| 1777981932 | 22.78° C | 56% | 1008.3 hPa | 0 mm | - | 373 W/m² | - |
| 1777981337 | 22.78° C | 55% | 1008.3 hPa | 0 mm | - | 342 W/m² | - |
| 1777980730 | 22.78° C | 54% | 1008.5 hPa | 0 mm | - | 305 W/m² | - |
| 1777980131 | 23.33° C | 54% | 1008.4 hPa | 0 mm | - | 567 W/m² | - |
| 1777979534 | 22.78° C | 54% | 1008.5 hPa | 0 mm | - | 650 W/m² | - |
| 1777978928 | 22.78° C | 54% | 1008.6 hPa | 0 mm | - | 610 W/m² | - |
| 1777978331 | 22.22° C | 56% | 1008.6 hPa | 0 mm | - | 715 W/m² | - |
| 1777977735 | 22.22° C | 56% | 1008.7 hPa | 0 mm | - | 399 W/m² | - |
| 1777977128 | 22.22° C | 55% | 1008.9 hPa | 0 mm | - | 307 W/m² | - |
| 1777976531 | 22.78° C | 54% | 1008.9 hPa | 0 mm | - | 560 W/m² | - |
| 1777975934 | 22.78° C | 54% | 1009 hPa | 0 mm | - | 695 W/m² | - |
* Rain latest hour (hover to see other rain measurements)
** Current wind speed in m/s (hover to see current wind gust speed)